When you browse on this site, cookies collect data to enhance your experience and personalize the content and advertising you see.
Visit our Privacy Policy to learn more. By continuing to use the site, you agree to this use of cookies and data.
EN

Hourly Weather Volnovaha

Today, 12 July, Sunday

Time Temperature Precipitation Wind Pressure Humidity
00:00 +19°C° 0 mm 3 mps 738 mmHg 57%
01:00 +19°C° 0 mm 3 mps 738 mmHg 59%
02:00 +19°C° 0 mm 3 mps 737 mmHg 61%
03:00 +19°C° 0 mm 3 mps 737 mmHg 63%
04:00 +19°C° 0 mm 3 mps 737 mmHg 65%
05:00 +19°C° 0 mm 3 mps 737 mmHg 68%
06:00 +21°C° 0 mm 4 mps 736 mmHg 64%
07:00 +23°C° 0 mm 4 mps 736 mmHg 61%
08:00 +26°C° 0 mm 4 mps 736 mmHg 56%
09:00 +28°C° 0 mm 4 mps 736 mmHg 52%
10:00 +30°C° 0 mm 4 mps 736 mmHg 49%
11:00 +32°C° 0 mm 4 mps 736 mmHg 45%
12:00 +33°C° 0 mm 3 mps 735 mmHg 41%
13:00 +34°C° 0 mm 3 mps 735 mmHg 37%
14:00 +35°C° 0 mm 3 mps 735 mmHg 32%
15:00 +35°C° 0 mm 3 mps 734 mmHg 33%
16:00 +34°C° 0 mm 2 mps 734 mmHg 34%
17:00 +34°C° 0 mm 2 mps 733 mmHg 35%
18:00 +30°C° 0 mm 2 mps 733 mmHg 42%
19:00 +28°C° 0 mm 3 mps 733 mmHg 49%
20:00 +25°C° 0 mm 3 mps 732 mmHg 56%
21:00 +25°C° 0 mm 3 mps 732 mmHg 60%
22:00 +24°C° 0 mm 3 mps 732 mmHg 65%
23:00 +22°C° 0 mm 3 mps 732 mmHg 70%

Tomorrow, 13 July, Monday

Time Temperature Precipitation Wind Pressure Humidity
00:00 +22°C° 0 mm 3 mps 732 mmHg 71%
01:00 +21°C° 0 mm 3 mps 731 mmHg 73%
02:00 +20°C° 0 mm 2 mps 731 mmHg 75%
03:00 +20°C° 0.1 mm 2 mps 731 mmHg 75%
04:00 +21°C° 0.1 mm 1 mps 731 mmHg 76%
05:00 +22°C° 0.1 mm 1 mps 730 mmHg 76%
06:00 +23°C° 0.4 mm 1 mps 731 mmHg 71%
07:00 +25°C° 0.4 mm 1 mps 731 mmHg 65%
08:00 +26°C° 0.4 mm 1 mps 731 mmHg 60%
09:00 +28°C° 0 mm 1 mps 731 mmHg 54%
10:00 +30°C° 0 mm 1 mps 731 mmHg 49%
11:00 +32°C° 0 mm 1 mps 731 mmHg 43%
12:00 +32°C° 0 mm 1 mps 731 mmHg 42%
13:00 +32°C° 0 mm 2 mps 731 mmHg 41%
14:00 +33°C° 0 mm 3 mps 731 mmHg 40%
15:00 +29°C° 3.5 mm 4 mps 730 mmHg 53%
16:00 +26°C° 3.5 mm 5 mps 730 mmHg 65%
17:00 +21°C° 3.5 mm 7 mps 729 mmHg 77%
18:00 +21°C° 0.5 mm 5 mps 730 mmHg 78%
19:00 +20°C° 0.5 mm 4 mps 730 mmHg 79%
20:00 +20°C° 0.5 mm 2 mps 730 mmHg 80%
21:00 +20°C° 0.3 mm 2 mps 730 mmHg 83%
22:00 +19°C° 0.3 mm 3 mps 730 mmHg 86%
23:00 +19°C° 0.3 mm 3 mps 730 mmHg 89%

Day after tomorrow, 14 July, Tuesday

Time Temperature Precipitation Wind Pressure Humidity
00:00 +19°C° 0 mm 4 mps 730 mmHg 90%
01:00 +19°C° 0 mm 4 mps 730 mmHg 92%
02:00 +17°C° 0 mm 5 mps 730 mmHg 93%
03:00 +17°C° 0 mm 5 mps 730 mmHg 92%
04:00 +17°C° 0 mm 5 mps 730 mmHg 91%
05:00 +18°C° 0 mm 4 mps 730 mmHg 90%
06:00 +19°C° 0 mm 5 mps 731 mmHg 88%
07:00 +19°C° 0 mm 5 mps 731 mmHg 85%
08:00 +19°C° 0 mm 5 mps 731 mmHg 82%
09:00 +19°C° 0 mm 5 mps 732 mmHg 80%
10:00 +19°C° 0 mm 4 mps 732 mmHg 78%
11:00 +20°C° 0 mm 4 mps 732 mmHg 75%
12:00 +20°C° 0.1 mm 4 mps 732 mmHg 72%
13:00 +21°C° 0.1 mm 4 mps 732 mmHg 69%
14:00 +21°C° 0.1 mm 4 mps 733 mmHg 66%
15:00 +21°C° 0.2 mm 5 mps 733 mmHg 66%
16:00 +21°C° 0.2 mm 5 mps 733 mmHg 67%
17:00 +21°C° 0.2 mm 5 mps 733 mmHg 67%
18:00 +19°C° 0.1 mm 5 mps 733 mmHg 73%
19:00 +18°C° 0.1 mm 4 mps 733 mmHg 80%
20:00 +15°C° 0.1 mm 4 mps 734 mmHg 86%
21:00 +15°C° 0 mm 4 mps 734 mmHg 88%
22:00 +14°C° 0 mm 4 mps 734 mmHg 90%
23:00 +14°C° 0 mm 4 mps 733 mmHg 92%

15 July, Wednesday

Time Temperature Precipitation Wind Pressure Humidity
00:00 +13°C° 0 mm 4 mps 734 mmHg 92%
01:00 +13°C° 0 mm 4 mps 734 mmHg 92%
02:00 +13°C° 0 mm 4 mps 734 mmHg 93%
03:00 +13°C° 0 mm 5 mps 734 mmHg 90%
04:00 +13°C° 0 mm 5 mps 734 mmHg 87%
05:00 +14°C° 0 mm 6 mps 735 mmHg 84%
06:00 +15°C° 0 mm 6 mps 735 mmHg 80%
07:00 +16°C° 0 mm 6 mps 736 mmHg 75%
08:00 +19°C° 0 mm 6 mps 736 mmHg 70%
09:00 +20°C° 0 mm 6 mps 736 mmHg 65%
10:00 +22°C° 0 mm 5 mps 737 mmHg 59%
11:00 +23°C° 0 mm 5 mps 737 mmHg 54%
12:00 +25°C° 0.1 mm 5 mps 737 mmHg 51%
13:00 +25°C° 0.1 mm 5 mps 737 mmHg 49%
14:00 +26°C° 0.1 mm 5 mps 737 mmHg 46%
15:00 +25°C° 0 mm 5 mps 737 mmHg 46%
16:00 +25°C° 0 mm 4 mps 737 mmHg 46%
17:00 +25°C° 0 mm 4 mps 737 mmHg 47%
18:00 +22°C° 0 mm 3 mps 737 mmHg 50%
19:00 +20°C° 0 mm 2 mps 737 mmHg 54%
20:00 +20°C° 0 mm 1 mps 737 mmHg 58%
21:00 +19°C° 0 mm 1 mps 737 mmHg 61%
22:00 +18°C° 0 mm 1 mps 737 mmHg 63%
23:00 +18°C° 0 mm 1 mps 737 mmHg 66%

16 July, Thursday

Time Temperature Precipitation Wind Pressure Humidity
00:00 +16°C° 0 mm 1 mps 737 mmHg 66%
01:00 +16°C° 0 mm 1 mps 737 mmHg 66%
02:00 +16°C° 0 mm 1 mps 737 mmHg 66%
03:00 +16°C° 0 mm 1 mps 737 mmHg 67%
04:00 +16°C° 0 mm 1 mps 737 mmHg 68%
05:00 +16°C° 0 mm 1 mps 737 mmHg 69%
06:00 +19°C° 0 mm 1 mps 737 mmHg 63%
07:00 +21°C° 0 mm 1 mps 737 mmHg 57%
08:00 +23°C° 0 mm 1 mps 737 mmHg 50%
09:00 +24°C° 0 mm 2 mps 737 mmHg 47%
10:00 +25°C° 0 mm 2 mps 737 mmHg 44%
11:00 +26°C° 0 mm 2 mps 737 mmHg 40%
12:00 +26°C° 0 mm 2 mps 737 mmHg 40%
13:00 +27°C° 0 mm 2 mps 737 mmHg 39%
14:00 +27°C° 0 mm 2 mps 737 mmHg 39%
15:00 +27°C° 0 mm 2 mps 736 mmHg 40%
16:00 +27°C° 0 mm 2 mps 736 mmHg 41%
17:00 +26°C° 0 mm 2 mps 736 mmHg 42%
18:00 +25°C° 0 mm 1 mps 736 mmHg 48%
19:00 +23°C° 0 mm 1 mps 736 mmHg 53%
20:00 +21°C° 0 mm 1 mps 736 mmHg 59%
21:00 +21°C° 0 mm 1 mps 736 mmHg 60%
22:00 +20°C° 0 mm 1 mps 735 mmHg 62%
23:00 +20°C° 0 mm 1 mps 735 mmHg 63%

17 July, Friday

Time Temperature Precipitation Wind Pressure Humidity
00:00 +19°C° 0 mm 1 mps 735 mmHg 64%
01:00 +19°C° 0 mm 1 mps 735 mmHg 65%
02:00 +18°C° 0 mm 1 mps 735 mmHg 66%
03:00 +17°C° 0 mm 2 mps 735 mmHg 67%
04:00 +17°C° 0 mm 2 mps 735 mmHg 67%
05:00 +18°C° 0 mm 2 mps 735 mmHg 67%
06:00 +20°C° 0 mm 2 mps 735 mmHg 61%
07:00 +23°C° 0 mm 2 mps 736 mmHg 55%
08:00 +25°C° 0 mm 2 mps 736 mmHg 49%
09:00 +26°C° 0 mm 2 mps 736 mmHg 45%
10:00 +27°C° 0 mm 1 mps 736 mmHg 41%
11:00 +28°C° 0 mm 1 mps 736 mmHg 37%
12:00 +29°C° 0 mm 1 mps 736 mmHg 35%
13:00 +29°C° 0 mm 1 mps 736 mmHg 34%
14:00 +29°C° 0 mm 1 mps 736 mmHg 33%
15:00 +29°C° 0 mm 1 mps 736 mmHg 33%
16:00 +29°C° 0 mm 1 mps 735 mmHg 34%
17:00 +29°C° 0 mm 1 mps 735 mmHg 34%
18:00 +27°C° 0 mm 2 mps 735 mmHg 39%
19:00 +25°C° 0 mm 2 mps 735 mmHg 44%
20:00 +23°C° 0 mm 2 mps 735 mmHg 49%
21:00 +21°C° 0 mm 2 mps 735 mmHg 51%
22:00 +21°C° 0 mm 2 mps 735 mmHg 52%
23:00 +20°C° 0 mm 3 mps 735 mmHg 54%
Show more